Regional Weather Roundup
Issued by NWS

Home | Current Version | Previous Version | Graphics & Text | Print | Product List | Glossary On
Versions: 1 2 3 4 5 6 7 8 9 10 11 12 13 14 15 16 17 18 19 20 21 22 23 24 25 26 27 28 29 30 31 32 33 34 35 36 37 38 39 40 41 42 43 44 45 46 47 48 49 50
039
ASUS43 KMPX 270401
RWRMN
WEATHER ROUNDUP FOR MINNESOTA
NATIONAL WEATHER SERVICE TWIN CITIES/CHANHASSEN MN
1100 PM CDT FRI MAY 26 2017


NOTE: "FAIR" INDICATES FEW OR NO CLOUDS BELOW 12,000 FEET WITH NO
SIGNIFICANT WEATHER AND/OR OBSTRUCTIONS TO VISIBILITY. N/A MEANS
CURRENT SKY AND/OR WEATHER CONDITIONS ARE NOT AVAILABLE.

MNZ060>063-068>070-270500-
   Twin Cities Metro

CITY           SKY/WX    TMP DP  RH WIND       PRES   REMARKS
TWIN CITIES    PTCLDY    65  47  52 W6        29.82R
ST PAUL        CLEAR     66  47  50 W7        29.82R
CRYSTAL        CLEAR     63  45  51 W6        29.81R
BLAINE         CLEAR     63  48  59 W5        29.82R
LAKEVILLE      CLEAR     63  48  59 W3        29.82R
EDEN PRAIRIE   CLEAR     66  46  48 NW5       29.81R
SOUTH ST PAUL  CLEAR     66  46  48 W5        29.81R
LAKE ELMO      FAIR      63  48  59 W5        29.83R
$$
MNZ001>005-007-008-013>017-022>024-027-028-270500-
   Northwest Minnesota

CITY           SKY/WX    TMP DP  RH WIND       PRES   REMARKS
BEMIDJI        CLEAR     55  44  66 SW3       29.80R
HALLOCK        CLEAR     54  39  58 SW5       29.74R
ROSEAU         MOCLDY    61  48  63 SW6       29.74S
WARROAD        CLEAR     55  46  71 SW5       29.74S
CROOKSTON      CLEAR     57  43  58 W7        29.78S
FOSSTON        MOCLDY    52  43  71 SW6       29.81R
DETROIT LAKES  PTCLDY    57  43  58 SW3       29.83S
MOORHEAD       PTCLDY    59  43  55 W5        29.82R
PARK RAPIDS    PTCLDY    53  41  63 SW5       29.82R
MAHNOMEN       FAIR      55  43  64 SW8       29.81R
$$
MNZ006-009>011-018-025>026-270500-
   North Central Minnesota

CITY           SKY/WX    TMP DP  RH WIND       PRES   REMARKS
BAUDETTE       CLEAR     53  43  68 SW6       29.75R
FLAG ISLAND    MOCLDY    57  46  67 SW9       29.71R
INTL FALLS     CLEAR     58  43  57 W5        29.75R
WASKISH        CLEAR     57  46  67 SW8         N/A
BIG FORK       CLEAR     57  45  62 W3        29.79R
LONGVILLE      CLEAR     57  45  62 W5        29.81R
GRAND RAPIDS   CLEAR     60  46  59 W6        29.81R
CRANE LAKE     PTCLDY    52  52 100 CALM      29.76R
ORR            CLEAR     57  43  58 W3        29.74R
COOK           CLEAR     54  46  76 CALM      29.77R
WALKER         FAIR      54  43  66 W3        29.81R
$$
MNZ012-019>021-037-270500-
   Northeast Minnesota

CITY           SKY/WX    TMP DP  RH WIND       PRES   REMARKS
DULUTH         PTCLDY    51  49  92 SE5       29.79R
ELY            PTCLDY    55  54  94 CALM      29.76S
HIBBING        CLEAR     48  46  93 CALM      29.77R
EVELETH        MOCLDY    54  45  71 CALM      29.78R
DULUTH HARBOR  PTCLDY    46  46 100 N5        29.80S
TWO HARBORS    MOCLDY    52  46  82 CALM      29.77S
SILVER BAY     MOCLDY    52  52 100 CALM      29.77R FOG
GRAND MARAIS     N/A     48  45  89 E5        29.77F
G MARAIS ARPRT CLOUDY    54  48  82 N3        29.81R
$$
MNZ029>031-032-039>041-046>048-054>057-064-270500-
   West Central Minnesota

CITY           SKY/WX    TMP DP  RH WIND       PRES   REMARKS
FERGUS FALLS   CLEAR     57  45  62 CALM      29.82R
WHEATON        CLOUDY    54  43  66 S5        29.87R
MORRIS         CLOUDY    55  46  71 W3        29.85R
ALEXANDRIA     CLEAR     55  45  68 W5        29.86R
ELBOW LAKE     FAIR      56  43  61 CALM      29.85R
WADENA         CLOUDY    54  45  71 CALM      29.83R
GLENWOOD       CLOUDY    55  45  67 W6        29.87R
APPLETON       CLOUDY    57  45  62 W3        29.87R
BENSON         CLOUDY    55  45  67 N6        29.88R
ORTONVILLE     CLOUDY    57  45  62 CALM      29.87R
MADISON        CLOUDY    59  48  67 CALM      29.87S
WILLMAR        FAIR      59  46  63 NW6       29.87R
$$
MNZ033>034-036-042>043-049>051-058-059-270500-
   Central Minnesota

CITY           SKY/WX    TMP DP  RH WIND       PRES   REMARKS
ST CLOUD       CLEAR     60  47  61 NW5       29.83R
SAUK CENTRE    FAIR      55  45  68 W6        29.85R
PAYNESVILLE    CLEAR     55  46  70 W3        29.85R
AITKIN         PTCLDY    55  46  71 SW3       29.80R
PINE RIVER     CLEAR     57  46  67 CALM      29.86R
BRAINERD       CLEAR     61  45  55 W8        29.82R
STAPLES        PTCLDY    54  45  71 W3        29.84R
LONG PRAIRIE   FAIR      57  45  62 SW6       29.85R
LITTLE FALLS   CLEAR     54  43  66 CALM      29.84R
LITCHFIELD     CLOUDY    61  48  63 W3        29.85R
BUFFALO        CLEAR     62  48  59 W3        29.84R
MAPLE LAKE     CLEAR     62  49  61 W3        29.84R
HUTCHINSON     CLEAR     63  47  57 W5        29.86R
$$
MNZ037-044-045-052-053-270500-
   East Central Minnesota

CITY           SKY/WX    TMP DP  RH WIND       PRES   REMARKS
PRINCETON      CLEAR     61  48  63 W5        29.83R
MORA           CLEAR     55  48  76 CALM      29.82R
CAMBRIDGE      CLEAR     59  46  63 CALM      29.80R
RUSH CITY      MOCLDY    56  49  80 CALM      29.81R
MOOSE LAKE     PTCLDY    52  48  87 CALM      29.77R
HINCKLEY       FAIR      54  52  94 CALM      29.80R
CLOQUET        CLEAR     50  46  87 CALM      29.79S
MCGREGOR       PTCLDY    61  46  59 W5        29.80R
$$
MNZ071>073-080-081-089-090-097-098-270500-
   Southwest Minnesota

CITY           SKY/WX    TMP DP  RH WIND       PRES   REMARKS
MONTEVIDEO     CLOUDY    61  46  59 N7        29.87R
CANBY          CLOUDY    58  47  65 CALM      29.89R
MARSHALL       CLOUDY    59  47  64 W9        29.89R
REDWOOD FALLS  CLOUDY    59  44  57 NW6       29.86R
OLIVIA         CLEAR     59  45  58 NW5       29.85R
PIPESTONE      PTCLDY    61  39  44 CALM      29.90S
WINDOM         PTCLDY    57  46  67 W7        29.89R
WORTHINGTON    CLEAR     57  44  62 W3        29.90R
JACKSON        CLOUDY    57  45  62 W5        29.89R
TRACY          CLOUDY    62  46  55 W6        29.89R
SLAYTON        CLEAR     60  43  54 W7        29.90R
$$
MNZ065>067-074>077-082>085-091>093-270500-
   South Central Minnesota

CITY           SKY/WX    TMP DP  RH WIND       PRES   REMARKS
MANKATO        CLEAR     63  47  55 W5        29.85R
NEW ULM        CLOUDY    59  48  67 W5        29.85R
ST JAMES       CLOUDY    63  46  55 W9        29.87R
FAIRMONT       CLOUDY    63  45  51 W8        29.87R
GLENCOE        CLOUDY    64  50  62 W6        29.83R
FARIBAULT      PTCLDY    63  48  59 W5        29.84R
OWATONNA       CLEAR     63  46  55 W7        29.85R
WASECA         CLEAR     59  46  63 W5        29.86R
ALBERT LEA     CLEAR     64  48  55 CALM      29.86R
$$
MNZ078>079-086>088-094>096-270500-
   Southeast Minnesota

CITY           SKY/WX    TMP DP  RH WIND       PRES   REMARKS
ROCHESTER      MOCLDY    61  58  90 SW7       29.87R
RED WING       MOCLDY    64  55  72 CALM      29.81R
STANTON        CLEAR     64  49  56 W3        29.82R
DODGE CENTER   PTCLDY    64  57  77 S7        29.86R
WINONA         CLEAR     61  55  82 SE5       29.83R
AUSTIN         CLEAR     63  55  77 SW5       29.86R
PRESTON        CLEAR     60  56  86 S9        29.85R
$$
ABBREVIATIONS USED IN REMARKS
   TC - TEMPERATURES IN CELSIUS
  WCI - WIND CHILL INDEX
   HX - HEAT INDEX
  VSB - VISIBILITY
$$




USA.gov is the U.S. government's official web portal to all federal, state and local government web resources and services.